Time+07,TemperatureF,Dew PointF,Humidity,Sea Level PressureIn,VisibilityMPH,Wind Direction,Wind SpeedMPH,Gust SpeedMPH,PrecipitationIn,Events,Conditions,WindDirDegrees,DateUTC
12:00 AM,84.2,73.4,70,29.86,5.0,Calm,Calm,-,N/A,,Scattered Clouds,0,2012-11-03 17:00:00
12:30 AM,84.2,73.4,70,29.86,5.0,NW,3.5,-,N/A,,Scattered Clouds,320,2012-11-03 17:30:00
1:00 AM,83,74,68,29.85,4,NNW,2.3,,,,Mist,330,2012-11-03 18:00:00
1:00 AM,84.2,73.4,70,29.83,4.3,NNW,2.3,-,N/A,,Scattered Clouds,330,2012-11-03 18:00:00
1:30 AM,84.2,73.4,70,29.83,4.3,Calm,Calm,-,N/A,,Scattered Clouds,0,2012-11-03 18:30:00
2:00 AM,82.4,75.2,79,29.83,4.3,Calm,Calm,-,N/A,,Scattered Clouds,0,2012-11-03 19:00:00
2:30 AM,82.4,73.4,74,29.83,4.3,Calm,Calm,-,N/A,,Scattered Clouds,0,2012-11-03 19:30:00
3:00 AM,82.4,75.2,79,29.83,4.3,Calm,Calm,-,N/A,,Scattered Clouds,0,2012-11-03 20:00:00
3:30 AM,82.4,77.0,84,29.80,4.3,Calm,Calm,-,N/A,,Scattered Clouds,0,2012-11-03 20:30:00
4:00 AM,82.4,77.0,84,29.80,4.3,Calm,Calm,-,N/A,,Scattered Clouds,0,2012-11-03 21:00:00
4:30 AM,82.4,77.0,84,29.80,3.7,East,2.3,-,N/A,,Scattered Clouds,80,2012-11-03 21:30:00
5:00 AM,82.4,77.0,84,29.80,3.7,ESE,2.3,-,N/A,,Scattered Clouds,120,2012-11-03 22:00:00
5:30 AM,82.4,77.0,84,29.83,3.7,Calm,Calm,-,N/A,,Scattered Clouds,0,2012-11-03 22:30:00
6:00 AM,80.6,77.0,89,29.83,3.1,Calm,Calm,-,N/A,,Scattered Clouds,0,2012-11-03 23:00:00
6:30 AM,80.6,77.0,89,29.83,2.5,Calm,Calm,-,N/A,,Scattered Clouds,0,2012-11-03 23:30:00
7:00 AM,82,76,78,29.86,2,NE,3.5,,,,Mist,50,2012-11-04 00:00:00
7:00 AM,82.4,77.0,84,29.86,2.5,NE,3.5,-,N/A,,Mostly Cloudy,50,2012-11-04 00:00:00
7:30 AM,82.4,77.0,84,29.86,3.1,East,4.6,-,N/A,,Mostly Cloudy,100,2012-11-04 00:30:00
8:00 AM,84.2,77.0,79,29.86,3.1,Calm,Calm,-,N/A,,Mostly Cloudy,0,2012-11-04 01:00:00
8:30 AM,86.0,77.0,74,29.86,3.7,East,2.3,-,N/A,,Scattered Clouds,90,2012-11-04 01:30:00
9:00 AM,87.8,75.2,66,29.89,4.3,ENE,8.1,-,N/A,,Scattered Clouds,60,2012-11-04 02:00:00
9:30 AM,87.8,75.2,66,29.89,4.3,NE,4.6,-,N/A,,Scattered Clouds,40,2012-11-04 02:30:00
10:00 AM,89.6,75.2,62,29.89,5.6,NE,4.6,-,N/A,,Scattered Clouds,40,2012-11-04 03:00:00
10:30 AM,91.4,75.2,59,29.86,6.2,NE,2.3,-,N/A,,Scattered Clouds,50,2012-11-04 03:30:00
11:00 AM,91.4,73.4,55,29.86,6.2,NE,2.3,-,N/A,,Scattered Clouds,50,2012-11-04 04:00:00
11:30 AM,93.2,73.4,52,29.86,6.2,East,2.3,-,N/A,,Scattered Clouds,90,2012-11-04 04:30:00
12:00 PM,93.2,73.4,52,29.83,6.2,East,8.1,-,N/A,,Scattered Clouds,90,2012-11-04 05:00:00
12:30 PM,95.0,73.4,49,29.83,6.2,NE,5.8,-,N/A,,Scattered Clouds,50,2012-11-04 05:30:00
1:00 PM,95,73,39,29.82,6,East,2.3,,,,Scattered Clouds,90,2012-11-04 06:00:00
1:00 PM,95.0,73.4,49,29.80,6.2,East,2.3,-,N/A,,Scattered Clouds,90,2012-11-04 06:00:00
1:30 PM,95.0,73.4,49,29.77,6.2,NNE,3.5,-,N/A,,Scattered Clouds,20,2012-11-04 06:30:00
2:00 PM,93.2,71.6,49,29.77,6.2,North,4.6,-,N/A,,Mostly Cloudy,10,2012-11-04 07:00:00
2:30 PM,93.2,71.6,49,29.77,6.2,NNW,5.8,-,N/A,,Mostly Cloudy,340,2012-11-04 07:30:00
3:00 PM,95.0,73.4,49,29.74,6.2,NE,9.2,-,N/A,,Mostly Cloudy,50,2012-11-04 08:00:00
3:30 PM,95.0,73.4,49,29.74,6.2,East,3.5,-,N/A,,Mostly Cloudy,90,2012-11-04 08:30:00
4:00 PM,93.2,71.6,49,29.74,6.2,NE,8.1,-,N/A,,Mostly Cloudy,40,2012-11-04 09:00:00
4:30 PM,91.4,73.4,55,29.74,6.2,NE,2.3,-,N/A,,Scattered Clouds,40,2012-11-04 09:30:00
5:00 PM,91.4,73.4,55,29.74,6.2,NNW,3.5,-,N/A,,Scattered Clouds,330,2012-11-04 10:00:00
5:30 PM,91.4,73.4,55,29.77,6.2,NE,3.5,-,N/A,,Scattered Clouds,40,2012-11-04 10:30:00
6:00 PM,91.4,73.4,55,29.77,6.2,North,4.6,-,N/A,,Scattered Clouds,10,2012-11-04 11:00:00
6:30 PM,89.6,73.4,59,29.77,5.6,North,4.6,-,N/A,,Scattered Clouds,360,2012-11-04 11:30:00
7:00 PM,90,74,51,29.80,6,WNW,2.3,,,,Haze,300,2012-11-04 12:00:00
7:00 PM,89.6,73.4,59,29.80,5.6,WNW,2.3,-,N/A,,Scattered Clouds,300,2012-11-04 12:00:00
7:30 PM,89.6,73.4,59,29.80,5.6,NNW,5.8,-,N/A,,Scattered Clouds,340,2012-11-04 12:30:00
8:00 PM,87.8,75.2,66,29.80,5.6,NNW,2.3,-,N/A,,Scattered Clouds,340,2012-11-04 13:00:00
8:30 PM,87.8,75.2,66,29.83,5.6,NNW,2.3,-,N/A,,Scattered Clouds,330,2012-11-04 13:30:00
9:00 PM,87.8,75.2,66,29.83,5.6,Calm,Calm,-,N/A,,Scattered Clouds,0,2012-11-04 14:00:00
9:30 PM,87.8,73.4,62,29.83,5.6,Calm,Calm,-,N/A,,Scattered Clouds,0,2012-11-04 14:30:00
10:00 PM,86.0,73.4,66,29.83,5.0,Calm,Calm,-,N/A,,Scattered Clouds,0,2012-11-04 15:00:00
10:30 PM,86.0,73.4,66,29.83,5.0,East,2.3,-,N/A,,Scattered Clouds,90,2012-11-04 15:30:00
11:00 PM,86.0,75.2,70,29.83,5.0,Calm,Calm,-,N/A,,Scattered Clouds,0,2012-11-04 16:00:00
11:30 PM,86.0,75.2,70,29.83,5.0,Calm,Calm,-,N/A,,Scattered Clouds,0,2012-11-04 16:30:00